Location: ??????
(38.0677°N, 22.9870°E)
Time: 09:58:29
(UTC+00:00)

Cosmos 2154 Rocket - Pass Details

Date: 23 May 2024
Orbit: 966 x 995 km, 82.9° (Epoch: 24 June)

Event Time Altitude Azimuth Distance (km) Brightness Sun altitude
Exits shadow 01:32:21 15° 183° (S) 2,376 5.6 -16.6°
Maximum altitude 01:37:40 87° 96° (E) 973 4.0 -15.9°
Drops below altitude 10° 01:43:53 10° 8° (N) 2,715 7.1 -15.0°
Sets 01:46:24 0° 8° (N) 3,668 7.8 -14.6°
